Flag for Norway Weather past 2 weeks in Bardufoss, Norway

Now
46 °F

Scattered showers. Partly sunny.


Feels Like: 43 °F
Forecast: 43 / 60 °F
Wind: 7 mph from North

Location: Bardufoss

Current Time: Jul 7, 2015 at 10:46:05 PM

Latest Report: Jul 7, 2015 at 9:50 PM


Visibility: N/A

Pressure: 29.56 "Hg

Humidity: 76%

Dew point: 39 °F

Location of BardufossLocation

Historic Weather in Bardufoss — Graph

°F

Bardufoss temperature yesterday

Maximum temperature yesterday: 55 °F (at 10:20 AM)
Minimum temperature yesterday: 45 °F (at 1:50 AM)
Average temperature yesterday: 51 °F

Past Weeks' High & Low Weather Summary

 TemperatureHumidityPressure
High64 °F (Jun 24, 4:20 PM)100% (Jun 25, 7:50 AM)30.27 "Hg (Jun 25, 7:50 AM)
Low39 °F (Jul 5, 2:50 AM)36% (Jul 1, 2:20 PM)29.56 "Hg (Jul 7, 7:20 AM)
Average51 °F74%29.94 "Hg
* Reported Jun 22 9:50 PM — Jul 7 9:50 PM, Bardufoss, Weather by CustomWeather, © 2015

Note: Actual official high and low records may vary slightly from our data, if they occured in-between our weather recording intervals... More about our weather records

Advertising

Bardufoss weather history for previous 24 hours

 ConditionsComfort  
Time TempWeatherWind HumidityBarometerVisibility
9:50 PM
Tue, Jul 7
46 °FScattered showers. Partly sunny.7 mph76%29.56 "HgN/A
8:50 PM48 °FPartly sunny.6 mph71%29.56 "HgN/A
7:50 PM50 °FPartly sunny.8 mph67%29.59 "HgN/A
6:50 PM52 °FPartly sunny.9 mph62%29.59 "HgN/A
6:20 PM52 °FBroken clouds.9 mph62%29.59 "HgN/A
5:50 PM52 °FBroken clouds.8 mph62%29.59 "HgN/A
5:20 PM52 °FBroken clouds.7 mph67%29.59 "HgN/A
4:50 PM52 °FPartly sunny.7 mph67%29.59 "HgN/A
4:20 PM52 °FPartly sunny.8 mph67%29.59 "HgN/A
3:50 PM52 °FPartly sunny.8 mph67%29.59 "HgN/A
3:20 PM52 °FPartly sunny.9 mph62%29.59 "HgN/A
2:50 PM52 °FBroken clouds.10 mph67%29.59 "HgN/A
2:20 PM52 °FPartly sunny.9 mph67%29.59 "HgN/A
1:50 PM52 °FBroken clouds.8 mph67%29.59 "HgN/A
1:20 PM52 °FBroken clouds.7 mph67%29.59 "HgN/A
12:50 PM52 °FBroken clouds.3 mph72%29.59 "HgN/A
12:20 PM50 °FBroken clouds.3 mph76%29.59 "HgN/A
11:50 AM50 °FBroken clouds.3 mph82%29.59 "HgN/A
11:20 AM50 °FScattered showers. Broken clouds.3 mph76%29.59 "HgN/A
10:50 AM50 °FLight rain. Broken clouds.2 mph82%29.59 "HgN/A
10:20 AM48 °FScattered showers. Broken clouds.5 mph82%29.56 "HgN/A
9:50 AM48 °FScattered showers. Broken clouds.5 mph82%29.56 "HgN/A
9:20 AM48 °FBroken clouds.5 mph87%29.56 "HgN/A
8:50 AM48 °FScattered showers. Broken clouds.3 mph82%29.56 "HgN/A
8:20 AM46 °FScattered showers. Broken clouds.2 mph87%29.56 "HgN/A
7:50 AM46 °FScattered showers. Broken clouds.3 mph87%29.56 "HgN/A
7:20 AM46 °FBroken clouds.6 mph87%29.56 "HgN/A
6:50 AM46 °FScattered showers. Broken clouds.5 mph87%29.59 "HgN/A
6:20 AM46 °FScattered showers. Broken clouds.2 mph87%29.59 "HgN/A
5:50 AM45 °FLight rain. Broken clouds.2 mph93%29.59 "HgN/A
5:20 AM45 °FScattered showers. Broken clouds.2 mph93%29.59 "HgN/A
4:50 AM45 °FScattered showers. Broken clouds.3 mph93%29.59 "HgN/A
3:50 AM45 °FLight rain. Broken clouds.5 mph93%29.59 "HgN/A
2:50 AM45 °FBroken clouds.2 mph93%29.59 "HgN/A
1:50 AM46 °FBroken clouds.5 mph93%29.62 "HgN/A
12:50 AM46 °FScattered showers. Broken clouds.6 mph87%29.62 "HgN/A
11:50 PM
Mon, Jul 6
46 °FScattered showers. Broken clouds.6 mph93%29.62 "HgN/A
10:50 PM46 °FLight rain. Broken clouds.2 mph93%29.62 "HgN/A
Weather by CustomWeather, © 2015

See weather overviewHow to use our weather pages